AXB27W VABB-VANP

Flight info

Callsign AXB27W
Flight time N/A
Altitude 31000
Route ANOLI2A AAU G450 NNP
Aircraft B738/M-SDE2E3FGHIRWXY/LB1

Departure

Time 2026-05-08 07:19
Airport Chhatrapati Shivaji Maharaj International Airport (VABB)

Arrival

Time N/A
Airport Dr. Babasaheb Ambedkar International Airport (VANP)
Time Latitude Longitude Altitude Speed Heading
2026-05-08 07:13 19.09005 72.85447 29 ft 10 kts 62°
2026-05-08 07:13 19.09026 72.85547 30 ft 18 kts 88°
2026-05-08 07:13 19.09029 72.85702 30 ft 26 kts 88°
2026-05-08 07:14 19.09033 72.85853 31 ft 33 kts 91°
2026-05-08 07:14 19.09033 72.86090 33 ft 32 kts 89°
2026-05-08 07:14 19.09037 72.86276 33 ft 1 kts 89°
2026-05-08 07:14 19.09038 72.86316 33 ft 9 kts 89°
2026-05-08 07:15 19.09039 72.86399 33 ft 13 kts 89°
2026-05-08 07:15 19.09039 72.86504 33 ft 16 kts 89°
2026-05-08 07:15 19.09041 72.86633 33 ft 19 kts 89°
2026-05-08 07:15 19.09044 72.86786 32 ft 22 kts 89°
2026-05-08 07:16 19.09047 72.86948 30 ft 22 kts 88°
2026-05-08 07:16 19.09050 72.87109 30 ft 22 kts 88°
2026-05-08 07:16 19.09053 72.87278 30 ft 24 kts 88°
2026-05-08 07:16 19.09055 72.87460 30 ft 25 kts 89°
2026-05-08 07:17 19.09059 72.87648 33 ft 26 kts 88°
2026-05-08 07:17 19.09061 72.87851 34 ft 27 kts 90°
2026-05-08 07:17 19.09055 72.88010 39 ft 11 kts 117°
2026-05-08 07:17 19.08984 72.88049 39 ft 13 kts 172°
2026-05-08 07:18 19.08899 72.88013 37 ft 14 kts 242°
2026-05-08 07:18 19.08884 72.87895 35 ft 30 kts 267°
2026-05-08 07:18 19.08874 72.87199 29 ft 152 kts 269°
2026-05-08 07:18 19.08861 72.85784 228 ft 225 kts 269°
2026-05-08 07:19 19.08856 72.84125 1633 ft 238 kts 270°
2026-05-08 07:19 19.08817 72.82410 2994 ft 242 kts 270°
2026-05-08 07:19 19.08783 72.80582 3994 ft 256 kts 270°
2026-05-08 07:19 19.08758 72.78724 5126 ft 262 kts 271°
2026-05-08 07:20 19.09107 72.76819 5914 ft 268 kts 296°
2026-05-08 07:20 19.10302 72.75399 6527 ft 267 kts 329°
2026-05-08 07:20 19.12084 72.74902 7164 ft 268 kts 359°
2026-05-08 07:20 19.13925 72.74916 7792 ft 271 kts 358°
2026-05-08 07:21 19.15774 72.74771 8408 ft 274 kts 356°
2026-05-08 07:21 19.17668 72.74642 9030 ft 277 kts 357°
2026-05-08 07:21 19.19593 72.74528 9656 ft 280 kts 357°
2026-05-08 07:21 19.21540 72.74414 10281 ft 283 kts 357°
2026-05-08 07:22 19.23519 72.74301 10910 ft 286 kts 358°
2026-05-08 07:22 19.25506 72.74189 11535 ft 290 kts 358°
2026-05-08 07:22 19.27506 72.74077 12156 ft 293 kts 358°
2026-05-08 07:22 19.29529 72.74153 12773 ft 295 kts 12°
2026-05-08 07:23 19.31383 72.75059 13403 ft 296 kts 38°
2026-05-08 07:23 19.32895 72.76499 14034 ft 299 kts 43°
2026-05-08 07:23 19.34394 72.77924 14638 ft 302 kts 41°
2026-05-08 07:23 19.35970 72.79386 15261 ft 305 kts 42°
2026-05-08 07:24 19.37561 72.80872 15886 ft 308 kts 42°
2026-05-08 07:24 19.39168 72.82372 16512 ft 311 kts 42°
2026-05-08 07:24 19.40770 72.83867 17130 ft 314 kts 42°
2026-05-08 07:24 19.42422 72.85409 17761 ft 317 kts 42°
2026-05-08 07:25 19.44066 72.86943 18383 ft 320 kts 42°
2026-05-08 07:25 19.45572 72.88628 18995 ft 322 kts 54°
2026-05-08 07:25 19.47081 72.93047 20250 ft 327 kts 79°
2026-05-08 07:26 19.47539 72.95364 20865 ft 329 kts 78°
2026-05-08 07:26 19.48037 72.97746 21494 ft 331 kts 78°
2026-05-08 07:26 19.48523 73.00104 22113 ft 332 kts 78°
2026-05-08 07:26 19.49014 73.02495 22739 ft 332 kts 78°
2026-05-08 07:27 19.49499 73.04855 23356 ft 332 kts 78°
2026-05-08 07:27 19.49983 73.07207 23971 ft 332 kts 78°
2026-05-08 07:27 19.50479 73.09548 24586 ft 331 kts 78°
2026-05-08 07:27 19.50981 73.11906 25208 ft 330 kts 78°
2026-05-08 07:28 19.51479 73.14259 25832 ft 328 kts 78°
2026-05-08 07:28 19.51969 73.16576 26449 ft 326 kts 78°
2026-05-08 07:28 19.52457 73.18879 27068 ft 323 kts 78°
2026-05-08 07:28 19.52942 73.21175 27689 ft 321 kts 78°
2026-05-08 07:29 19.53402 73.23357 28284 ft 318 kts 78°
2026-05-08 07:29 19.53886 73.25649 28916 ft 314 kts 79°
2026-05-08 07:29 19.54351 73.27858 29532 ft 311 kts 79°
2026-05-08 07:29 19.54818 73.30056 30132 ft 302 kts 77°
2026-05-08 07:30 19.55567 73.32027 29725 ft 318 kts 57°
2026-05-08 07:30 19.57353 73.33467 27063 ft 395 kts 14°
2026-05-08 07:30 19.59856 73.32659 23372 ft 459 kts 309°
2026-05-08 07:30 19.59936 73.29614 21941 ft 441 kts 230°
2026-05-08 07:31 19.57342 73.28976 20600 ft 430 kts 151°
2026-05-08 07:31 19.56727 73.31634 16940 ft 469 kts 52°
2026-05-08 07:31 19.59486 73.31816 15340 ft 424 kts 320°
2026-05-08 07:31 19.60287 73.29369 16742 ft 323 kts 258°
2026-05-08 07:32 19.59200 73.27567 16541 ft 295 kts 215°
2026-05-08 07:32 19.57265 73.26979 14648 ft 323 kts 176°
2026-05-08 07:32 19.55207 73.27767 13474 ft 316 kts 144°
2026-05-08 07:32 19.53862 73.29340 13666 ft 270 kts 119°
2026-05-08 07:33 19.53264 73.31080 13473 ft 250 kts 100°
2026-05-08 07:33 19.53201 73.32914 12281 ft 271 kts 84°
2026-05-08 07:33 19.53616 73.34866 11092 ft 282 kts 70°
2026-05-08 07:33 19.54404 73.36675 10717 ft 261 kts 59°
2026-05-08 07:34 19.55387 73.38178 10442 ft 243 kts 50°
2026-05-08 07:34 19.56373 73.39311 9735 ft 250 kts 44°
2026-05-08 07:34 19.57759 73.40578 9334 ft 231 kts 39°
2026-05-08 07:34 19.58965 73.41677 8849 ft 228 kts 43°
2026-05-08 07:35 19.59771 73.42898 8911 ft 196 kts 71°
2026-05-08 07:35 19.59988 73.44309 8457 ft 194 kts 88°
2026-05-08 07:35 19.59923 73.45676 7807 ft 211 kts 96°
2026-05-08 07:35 19.59642 73.47201 7486 ft 195 kts 102°
2026-05-08 07:36 19.59329 73.48541 7087 ft 196 kts 105°
2026-05-08 07:36 19.59115 73.49318 6627 ft 207 kts 105°
2026-05-08 07:36 19.58792 73.50446 6565 ft 188 kts 106°
2026-05-08 07:36 19.58438 73.51700 6465 ft 171 kts 103°
2026-05-08 07:37 19.58147 73.52911 6103 ft 172 kts 104°
2026-05-08 07:37 19.57836 73.54143 5567 ft 183 kts 99°
2026-05-08 07:37 19.57729 73.55490 5075 ft 188 kts 91°
2026-05-08 07:37 19.57770 73.56965 4074 ft 215 kts 86°
2026-05-08 07:38 19.57867 73.58283 4659 ft 154 kts 81°
2026-05-08 07:38 19.58012 73.59345 4449 ft 149 kts 81°
2026-05-08 07:38 19.58075 73.60435 4084 ft 151 kts 97°
2026-05-08 07:38 19.57748 73.61464 3771 ft 151 kts 119°
2026-05-08 07:39 19.57195 73.62394 3458 ft 150 kts 123°
2026-05-08 07:39 19.56531 73.63254 3094 ft 152 kts 142°
2026-05-08 07:39 19.55900 73.63782 2772 ft 158 kts 138°